Location: Unspecified
(0.0000°N, 0.0000°E)
Time: 00:34:46
(UTC+00:00)

Tiangong - Pass Details

Date: 23 September 2023
Orbit: 370 x 384 km, 41.5° (Epoch: 04 October)

Event Time Altitude Azimuth Distance (km) Brightness Sun altitude
Rises 18:31:41 0° 236° (WSW) 2,255 2.8 -9.8°
Reaches altitude 10° 18:33:50 10° 244° (WSW) 1,396 1.8 -10.4°
Maximum altitude 18:36:50 41° 316° (NW) 566 -0.9 -11.1°
Drops below altitude 10° 18:39:48 10° 28° (NNE) 1,380 0.4 -11.9°
Enters shadow 18:40:33 - 32° (NNE) 1,676 0.8 -12.0°
